Location: Miami, Florida
(25.6830°N, 80.1700°W)
Time: 21:25:26
(UTC-04:00)

Vanguard 2 Rocket - Visible Passes

Search period start: 22 April 2018 00:00
Search period end: 02 May 2018 00:00
Orbit: 553 x 3328 km, 32.9° (Epoch: 22 April)

Date Brightness Start Highest point End Pass type
(mag) Time Alt. Az. Time Alt. Az. Time Alt. Az.
22 Apr 9.4 03:12:53 46° SE 03:13:28 47° SE 03:31:17 10° ENE visible
22 Apr 9.5 05:18:40 26° WSW 05:30:32 89° NNW 05:51:21 10° ENE visible
23 Apr 9.9 02:16:34 29° ESE 02:16:34 29° ESE 02:27:29 10° E visible
23 Apr 9.1 04:22:21 48° SW 04:28:31 78° SSE 04:48:58 10° ENE visible
24 Apr 10.5 01:20:13 13° E 01:20:13 13° E 01:22:22 10° E visible
24 Apr 9.0 03:26:00 61° SSE 03:27:11 62° SE 03:46:11 10° ENE visible
24 Apr 9.6 05:31:47 20° WSW 05:45:12 79° NNW 06:05:59 10° ENE visible
25 Apr 9.5 02:29:37 42° ESE 02:29:37 42° ESE 02:42:56 10° ENE visible
25 Apr 9.1 04:35:23 41° WSW 04:42:54 88° NNW 05:03:33 10° ENE visible
26 Apr 10.2 01:33:12 21° E 01:33:12 21° E 01:39:05 10° E visible
26 Apr 8.7 03:38:58 69° SSW 03:41:15 79° SSE 04:00:49 10° ENE visible
26 Apr 9.7 05:44:45 13° W 06:00:07 72° N 06:20:47 10° ENE visible
27 Apr 9.0 02:42:32 57° ESE 02:42:32 57° ESE 02:57:48 10° ENE visible
27 Apr 9.3 04:48:19 31° W 04:57:35 77° NNW 05:18:14 10° ENE visible
28 Apr 9.8 01:46:04 31° E 01:46:04 31° E 01:54:33 10° ENE visible
28 Apr 8.7 03:51:51 59° WSW 03:55:40 86° NNW 04:15:24 10° ENE visible
28 Apr 9.8 05:58:46 10° W 06:15:10 69° N 06:35:45 10° E visible
29 Apr 10.4 00:49:36 12° E 00:49:36 12° E 00:50:53 10° E visible
29 Apr 8.7 02:55:22 77° ESE 02:55:22 77° ESE 03:12:25 10° ENE visible
29 Apr 9.5 05:01:08 21° W 05:12:31 70° N 05:33:03 10° ENE visible
30 Apr 9.3 01:58:53 42° E 01:58:53 42° E 02:09:25 10° ENE visible
30 Apr 9.0 04:04:39 44° W 04:10:24 75° NNW 04:30:05 10° ENE visible
30 Apr 9.9 06:13:39 10° WNW 06:30:14 70° N 06:50:47 10° E visible
01 May 10.1 01:02:23 19° E 01:02:23 19° E 01:06:21 10° ENE visible
01 May 8.5 03:08:09 81° WNW 03:08:55 84° NNW 03:27:00 10° ENE visible
01 May 9.6 05:13:56 13° W 05:27:34 68° N 05:48:03 10° E visible
